Theta_e
335 335 335 335 336 336 336 336 336 336 336 334 333 333 334 335 336 335 335 334 328 326 325 330 330 332 329 329 329 325 329 329 322 325 330 329 327 329 330 330 330 328 324
334 334 334 335 335 335 334 335 335 334 333 333 333 333 333 333 334 333 332 329 326 324 323 326 329 330 332 332 328 327 327 330 325 323 324 324 323 326 325 325 325 326 324
333 333 333 333 334 334 334 333 333 332 333 333 333 331 331 333 333 333 329 326 325 325 325 325 329 330 331 329 330 328 328 328 329 323 320 322 322 322 321 321 321 322 322
331 331 331 332 333 333 333 332 332 332 332 332 332 332 333 333 331 331 330 328 325 326 324 327 329 330 330 330 327 328 328 327 325 323 319 318 319 320 320 316 315 318 316
329 329 331 332 333 332 331 331 331 332 331 331 332 332 332 329 325 327 330 328 326 322 326 324 329 329 323 325 327 327 329 325 322 320 317 316 315 316 314 316 314 314 316
329 329 330 331 331 331 331 330 330 330 333 331 332 330 328 327 302 309 322 327 325 324 325 327 327 322 319 314 315 317 325 325 322 319 317 315 316 316 316 314 313 312 309
329 329 330 330 329 330 329 329 329 331 331 328 331 329 328 329 302 305 311 328 328 325 324 323 323 323 322 322 310 311 311 310 318 324 320 318 315 318 317 315 314 316 313
329 329 329 329 328 329 328 328 331 331 330 327 330 329 330 322 302 302 308 328 327 326 323 323 321 322 321 322 323 322 322 324 325 324 325 323 322 322 319 318 316 314 314
330 330 330 329 328 328 328 330 332 332 327 328 329 328 330 323 301 302 317 327 325 323 323 323 321 320 305 306 322 319 320 318 308 307 307 304 302 305 313 316 313 314 311
330 330 330 329 328 328 329 330 332 334 331 329 327 329 316 324 300 303 317 325 321 319 319 318 308 314 301 304 322 322 318 317 317 314 312 308 311 309 308 321 321 319 317
332 331 330 329 329 330 330 330 331 331 330 329 327 329 326 322 316 300 308 324 321 321 319 317 311 299 299 302 309 321 316 319 312 316 316 317 317 318 321 325 327 323 319
332 331 329 330 327 329 330 330 331 332 330 328 327 323 322 322 306 301 304 309 313 322 319 316 306 297 298 300 311 299 301 311 320 317 318 318 319 318 322 323 325 325 327
332 329 330 329 329 331 330 331 330 330 328 325 325 322 320 321 315 299 299 301 306 321 321 304 296 296 297 300 298 300 304 320 320 318 317 318 320 323 324 322 323 325 327
331 328 330 329 328 330 330 331 330 329 327 324 323 321 321 321 318 316 316 314 305 309 304 308 303 304 303 302 308 312 324 324 322 320 320 321 323 323 323 323 321 321 320
330 326 330 329 329 330 330 329 331 332 327 327 325 324 322 321 320 313 317 322 321 314 311 318 317 317 316 317 319 322 322 324 324 323 323 322 323 323 323 325 324 322 319
330 328 328 329 329 329 327 324 296 301 300 301 304 317 325 306 299 299 299 298 298 300 318 318 317 317 318 319 320 322 324 320 325 325 324 324 323 323 323 324 323 320 318
330 330 329 326 329 328 328 328 325 311 295 295 296 299 303 302 296 295 295 296 297 304 319 319 318 318 319 321 322 323 323 325 326 325 325 324 324 324 319 321 321 322 322
332 310 330 329 329 329 328 328 328 327 323 326 300 301 293 294 294 294 295 301 315 315 322 322 321 323 321 322 324 324 325 326 325 325 325 325 324 322 319 320 321 321 322
329 328 330 330 330 326 329 327 327 326 326 326 317 305 296 291 292 293 297 323 320 320 321 321 322 324 326 326 326 325 325 326 325 326 326 325 325 324 322 320 320 306 310
329 313 318 330 329 329 328 326 325 325 325 325 328 326 310 309 315 311 321 325 324 324 324 325 325 325 325 326 326 324 321 325 326 326 326 326 325 324 322 322 324 324 324
328 328 313 329 329 329 329 327 326 324 324 326 328 324 300 326 325 323 324 326 327 327 327 327 326 327 327 328 327 324 323 327 327 327 327 326 326 325 326 326 326 326 325
327 327 328 328 329 329 329 329 328 327 326 325 326 318 291 324 329 328 327 328 329 329 330 330 329 329 329 329 328 328 328 328 328 328 328 328 327 327 327 326 326 325 326
327 326 327 328 329 318 327 330 329 329 329 328 327 322 318 325 328 330 330 330 331 330 331 330 329 329 330 331 331 331 329 328 329 329 328 328 327 327 327 325 325 325 326
325 325 325 326 327 328 330 330 330 315 327 330 329 327 324 324 326 328 330 331 332 332 332 332 331 331 330 330 330 330 330 330 330 329 330 328 327 322 325 325 325 326 326
315 317 320 322 321 322 322 322 323 324 324 325 327 328 330 329 326 326 327 328 330 330 331 332 332 332 332 332 332 332 320 295 320 313 331 330 329 328 326 325 325 326 326
302 304 309 311 311 311 310 310 311 311 312 313 315 318 319 320 321 321 323 324 325 326 327 328 329 330 330 330 330 314 297 294 308 295 325 330 329 328 328 328 327 327 327
Wind_Speed
13 12 12 11 11 11 11 10 9 9 9 9 8 7 6 6 6 6 6 6 6 5 3 8 8 7 6 6 6 4 5 5 6 4 3 6 4 6 7 7 8 10 12
13 14 14 13 12 11 10 9 9 9 9 8 7 6 6 5 4 5 6 5 6 6 5 6 7 6 7 7 7 9 5 4 5 10 3 3 4 6 8 10 8 9 12
14 14 12 11 11 10 10 9 9 10 9 7 6 5 4 4 3 4 5 6 8 8 9 5 5 7 8 7 7 8 8 5 7 8 4 3 3 7 9 10 11 12 10
14 13 12 10 10 9 9 10 9 9 8 6 4 4 4 1 2 4 4 6 6 6 5 7 7 7 7 8 7 9 10 9 10 9 7 6 4 5 8 11 11 10 10
12 12 10 9 9 9 9 9 8 7 6 5 6 5 4 3 4 4 4 5 8 5 4 3 5 5 5 7 7 10 13 11 9 9 6 7 6 6 10 9 11 10 9
11 10 10 9 9 9 9 9 7 6 6 7 7 5 5 3 6 4 3 6 6 5 5 4 6 8 7 7 7 5 10 15 14 10 7 10 8 10 10 11 12 11 6
10 9 9 8 8 9 8 9 8 6 6 6 6 5 4 4 6 2 4 5 5 4 5 6 6 6 8 9 10 12 11 12 10 13 14 10 12 14 13 13 11 9 7
9 8 9 9 9 9 9 8 7 5 6 6 5 5 4 4 3 2 4 6 6 6 5 6 7 8 9 12 12 13 11 11 12 9 12 12 14 12 12 11 11 10 9
8 8 9 9 10 10 9 7 5 8 6 5 5 5 5 4 3 4 5 5 6 6 5 6 7 9 9 11 13 14 13 9 10 13 15 15 15 14 14 12 10 11 8
8 9 10 10 10 9 9 7 4 5 6 5 5 4 6 5 2 3 4 5 5 4 5 6 9 10 12 12 13 14 13 12 14 13 12 13 13 11 8 7 12 12 11
6 9 10 9 9 8 8 6 6 6 7 5 5 5 5 4 3 1 6 5 5 5 5 5 4 13 11 13 11 11 11 14 15 13 11 10 10 9 8 9 8 8 9
8 10 10 9 7 7 8 6 5 6 7 6 5 4 3 3 4 2 6 8 7 7 6 6 5 11 11 12 10 15 14 12 10 10 11 10 10 8 8 7 8 7 4
9 10 10 9 7 7 7 7 5 5 5 5 5 4 3 3 3 6 7 9 9 8 7 8 11 13 13 12 16 16 11 8 11 10 10 8 8 8 8 8 7 6 7
10 8 9 8 7 6 5 4 4 6 5 5 5 5 4 3 4 4 5 7 10 10 12 6 8 11 11 7 9 7 7 9 10 10 10 9 8 8 8 7 8 7 5
10 7 9 7 7 7 4 2 3 4 2 6 5 6 6 5 4 7 8 8 8 9 9 6 7 8 8 6 6 7 8 8 9 10 10 10 9 8 8 7 7 7 7
10 8 7 7 6 6 6 5 9 8 3 4 5 4 5 7 12 11 10 12 16 14 7 7 7 8 9 9 8 8 9 9 9 8 8 9 9 8 9 8 7 7 7
10 9 7 6 7 6 6 6 7 6 10 10 6 4 4 11 11 11 12 12 13 11 8 8 8 8 8 7 7 7 8 8 9 8 8 9 9 9 8 8 7 7 7
10 10 9 8 7 7 6 6 5 6 6 6 9 7 7 12 12 13 14 11 6 3 6 7 8 8 7 8 8 7 7 7 8 8 8 9 9 9 9 9 8 8 8
9 8 8 7 7 6 5 5 5 5 4 7 6 5 8 10 9 9 11 8 8 8 7 6 6 6 8 8 7 7 7 8 8 8 8 9 9 9 9 9 9 8 7
8 7 7 8 7 8 6 6 5 5 5 6 7 8 7 5 6 7 8 8 8 8 8 8 9 9 9 9 8 7 7 8 8 8 9 9 9 9 10 11 10 10 10
6 7 5 6 7 8 8 7 6 6 5 5 6 8 10 8 8 9 9 8 9 8 8 8 8 8 9 9 9 9 10 10 10 10 9 10 10 10 11 11 11 11 11
6 6 7 6 5 7 7 7 7 7 6 5 5 6 7 7 7 8 9 9 8 8 8 9 9 9 9 10 10 10 11 11 11 12 12 12 12 12 12 13 13 13 13
4 5 6 5 4 3 4 5 5 6 6 6 6 6 8 8 6 7 8 8 9 9 9 9 9 9 9 10 10 11 11 11 11 11 12 12 12 12 13 13 14 14 13
5 4 3 3 3 3 2 2 2 2 3 3 3 3 4 5 5 6 6 5 6 7 7 9 10 13 12 12 11 12 12 12 11 12 17 13 14 14 14 15 15 17 15
9 9 9 7 7 7 7 7 6 5 5 4 3 1 1 2 3 4 4 4 5 6 8 8 8 11 14 17 15 16 13 7 14 11 12 16 18 19 17 15 16 15 18
12 14 9 9 10 11 11 11 11 11 11 10 10 10 9 9 9 9 8 7 6 5 6 5 7 10 12 12 15 14 8 7 11 12 14 15 15 15 16 18 24 17 19
Wind_Direction
123 124 124 122 121 127 131 133 133 133 142 150 159 168 179 195 205 205 218 205 171 175 184 245 210 194 194 187 173 156 191 193 159 126 104 100 84 102 100 109 121 120 123
126 124 120 121 125 124 130 132 140 139 142 148 159 169 183 190 202 217 215 162 164 166 209 237 214 180 184 174 180 184 181 172 156 143 104 113 89 96 104 106 104 113 122
125 120 119 121 127 129 131 135 138 137 146 155 166 186 192 208 221 235 219 184 182 189 203 217 206 179 160 165 174 174 172 167 145 128 108 94 93 107 101 92 98 100 105
129 127 125 130 131 131 129 136 140 148 155 163 173 137 146 116 348 318 280 191 167 180 196 203 205 195 165 164 167 165 159 145 139 128 119 119 113 111 105 109 100 101 102
135 133 131 134 134 132 134 139 140 155 165 175 137 140 96 46 24 352 93 134 143 131 170 177 198 184 156 174 168 166 159 145 138 128 128 124 124 133 122 119 108 107 93
139 136 144 141 141 142 143 142 150 153 147 123 138 121 84 46 3 330 103 121 137 155 159 161 132 126 131 130 113 141 162 152 146 143 142 143 136 126 129 128 128 128 115
145 143 144 144 147 144 144 151 157 149 133 131 134 108 89 63 14 83 103 119 133 146 142 127 116 121 137 128 103 102 84 82 136 154 148 146 141 143 141 131 133 132 122
152 150 152 158 150 148 144 144 153 134 129 137 129 111 102 62 26 134 141 118 114 122 128 131 129 133 136 136 130 120 123 128 132 146 145 137 137 139 134 127 120 106 99
163 158 156 154 153 152 151 149 142 135 137 145 135 122 102 96 82 173 148 115 106 104 108 121 126 130 136 132 126 123 120 98 67 89 103 107 111 115 130 124 129 135 130
165 162 154 153 154 156 153 153 149 124 129 142 131 100 81 117 111 167 133 116 98 86 78 101 115 133 134 129 135 137 125 125 119 111 104 97 109 112 113 138 146 151 142
159 156 151 154 156 154 153 156 156 143 141 143 125 107 96 119 135 193 116 120 113 114 108 108 113 130 126 122 126 132 127 128 124 126 126 125 130 131 142 145 167 153 164
159 155 149 149 155 155 159 155 157 143 144 143 132 108 95 103 110 120 111 113 122 116 106 104 110 112 113 115 116 116 118 127 128 130 133 141 142 149 145 146 145 120 69
158 151 150 151 155 157 159 150 137 145 152 152 158 138 135 123 101 81 100 110 109 109 110 92 102 98 97 93 121 127 141 134 142 138 138 142 149 142 138 144 158 146 76
151 147 148 154 155 157 149 144 139 155 157 164 159 145 136 119 119 127 117 102 97 94 102 97 85 86 88 102 125 155 142 157 150 144 142 141 145 153 160 166 170 180 191
154 149 152 150 166 146 114 98 138 129 127 161 164 161 154 151 159 153 150 138 142 122 122 124 116 122 125 129 144 147 146 158 148 152 153 159 163 163 165 173 177 178 202
158 159 163 158 159 151 147 131 53 35 54 33 125 139 123 102 134 139 124 119 124 145 137 128 129 144 147 148 151 157 162 163 156 164 168 169 169 176 172 180 185 194 205
164 162 159 167 163 159 161 158 141 77 65 59 58 84 60 134 137 132 130 133 144 145 150 151 153 157 156 159 159 165 167 176 167 171 173 178 182 187 179 186 196 203 213
171 159 174 178 174 166 167 166 153 155 156 145 57 52 97 131 137 132 132 123 148 198 164 163 167 166 169 173 171 180 173 169 183 182 184 185 188 192 191 209 208 216 223
168 169 184 182 176 165 160 162 166 150 138 140 126 93 73 83 101 133 160 163 173 182 174 175 176 189 184 187 181 186 186 191 190 191 196 196 196 202 208 216 226 234 245
181 164 180 177 166 176 170 175 166 163 154 152 165 148 141 146 155 164 191 179 185 186 186 194 189 194 200 203 200 189 197 213 199 202 202 201 202 209 219 222 227 232 222
182 162 194 184 181 187 184 184 179 176 179 168 164 159 166 177 171 179 196 196 197 196 192 196 191 196 197 195 193 192 201 216 209 209 210 209 211 218 224 232 237 238 242
176 178 179 198 188 188 197 193 188 189 186 180 165 129 158 220 184 184 197 208 209 211 202 203 202 200 202 203 203 204 206 207 208 210 213 216 217 223 228 231 235 236 238
164 175 183 180 189 169 180 201 203 209 205 196 177 159 182 209 219 214 210 206 206 208 207 210 215 215 215 214 215 216 216 217 217 217 222 225 229 231 233 236 238 240 242
70 97 126 149 160 169 179 190 220 227 274 227 180 202 198 219 237 250 252 243 237 235 231 226 226 226 220 219 219 221 225 227 225 223 225 229 231 228 237 238 238 243 250
50 69 61 71 94 94 92 70 61 59 57 46 43 23 263 257 278 288 294 278 262 251 247 246 249 251 249 248 247 244 244 233 238 238 230 233 240 241 243 241 245 250 249
38 46 38 73 61 71 76 73 67 62 61 51 42 42 43 38 37 28 16 4 335 315 301 284 277 271 276 274 267 267 266 236 231 231 250 256 253 249 250 248 250 251 250